Fitchburg, MA

3:02 PM EDT on June 25, 2017 (GMT -0400)
Fitchburg Municipal

Weather History for KFIT - October, 2013

Change the Weather History Date:

Tuesday, October 8, 2013

  Actual Average (KORH) Record (KORH)
Temperature  
Mean Temperature 55 °F -  
Max Temperature 66 °F 61 °F 82 °F (1916)
Min Temperature 41 °F 43 °F 26 °F (1935)
Degree Days  
Heating Degree Days 10    
Growing Degree Days 5 (Base 50)    
Moisture  
Dew Point 42 °F    
Average Humidity 63    
Maximum Humidity 89    
Minimum Humidity 34    
Precipitation  
Precipitation 0.01 in - - ()
Sea Level Pressure  
Sea Level Pressure 30.20 in    
Wind  
Wind Speed 6 mph (NNW)    
Max Wind Speed 15 mph    
Max Gust Speed 17 mph    
Visibility 10 miles    
Events      
Averages and records for this station are not official NWS values.
T = Trace of Precipitation, MM = Missing Value Source: NWS Daily Summary

Daily Weather History Graph

Daily Weather History Graph

Search for Another Location

Airport or City:

Trip Planner

Search our weather history database for the weather conditions in past years. The results will help you decide how hot, cold, wet, or windy it might be!

Date:

Astronomy

Oct. 08, 2013 Rise Set
Actual Time 6:52 AM EDT 6:16 PM EDT
Civil Twilight 6:24 AM EDT 6:44 PM EDT
Nautical Twilight 5:51 AM EDT 7:16 PM EDT
Astronomical Twilight 5:18 AM EDT 7:49 PM EDT
Moon 10:48 AM EDT (10/8) 8:45 PM EDT (10/8)
Length of Visible Light 12h 20m
Length of Day
11h 23m
Waxing Crescent, 16% of the Moon is Illuminated
Oct 8
Waxing Crescent
Oct 11
First Quarter
Oct 18
Full
Oct 26
Last Quarter
Nov 3
New

Hourly Weather History & Observations

Time (EDT) Temp. Windchill Dew Point Humidity Pressure Visibility Wind Dir Wind Speed Gust Speed Precip Events Conditions
12:52 AM 57.9 °F - 50.0 °F 75% 29.94 in 10.0 mi WNW 8.1 mph - N/A   Clear
1:52 AM 57.0 °F - 48.0 °F 72% 29.98 in 10.0 mi WNW 5.8 mph - N/A   Clear
2:52 AM 54.0 °F - 46.9 °F 77% 29.99 in 10.0 mi Calm Calm - N/A   Clear
3:52 AM 54.0 °F - 45.0 °F 72% 30.01 in 10.0 mi NW 4.6 mph - N/A   Clear
4:52 AM 52.0 °F - 45.0 °F 77% 30.04 in 10.0 mi Calm Calm - N/A   Clear
5:52 AM 52.0 °F - 44.1 °F 74% 30.07 in 10.0 mi NNW 5.8 mph - N/A   Clear
6:52 AM 50.0 °F - 44.1 °F 80% 30.09 in 10.0 mi NW 5.8 mph - N/A   Clear
7:52 AM 52.0 °F - 45.0 °F 77% 30.13 in 10.0 mi NNW 6.9 mph - N/A   Clear
8:52 AM 57.0 °F - 44.1 °F 62% 30.18 in 10.0 mi Variable 6.9 mph - N/A   Clear
9:52 AM 59.0 °F - 43.0 °F 55% 30.20 in 10.0 mi NNW 8.1 mph - N/A   Partly Cloudy
10:52 AM 61.0 °F - 41.0 °F 48% 30.22 in 10.0 mi NNW 11.5 mph - N/A   Clear
11:52 AM 63.0 °F - 39.0 °F 41% 30.22 in 10.0 mi NW 10.4 mph 17.3 mph N/A   Clear
12:52 PM 64.9 °F - 41.0 °F 42% 30.22 in 10.0 mi WNW 10.4 mph - 0.01 in   Clear
1:52 PM 66.0 °F - 39.0 °F 37% 30.22 in 10.0 mi NW 10.4 mph - N/A   Clear
2:52 PM 66.0 °F - 37.0 °F 34% 30.22 in 10.0 mi North 13.8 mph - N/A   Clear
3:52 PM 64.9 °F - 36.0 °F 34% 30.24 in 10.0 mi NNW 15.0 mph - N/A   Clear
4:52 PM 64.0 °F - 35.1 °F 34% 30.27 in 10.0 mi NW 6.9 mph - N/A   Clear
5:52 PM 61.0 °F - 37.0 °F 41% 30.30 in 10.0 mi North 6.9 mph - N/A   Clear
6:52 PM 51.1 °F - 42.1 °F 71% 30.31 in 10.0 mi NNW 3.5 mph - N/A   Clear
7:52 PM 50.0 °F - 42.1 °F 74% 30.33 in 10.0 mi North 5.8 mph - N/A   Clear
8:52 PM 48.0 °F - 42.1 °F 80% 30.36 in 10.0 mi Calm Calm - N/A   Clear
9:52 PM 45.0 °F 42.6 °F 41.0 °F 86% 30.38 in 10.0 mi North 4.6 mph - N/A   Clear
10:52 PM 44.1 °F - 39.9 °F 85% 30.38 in 10.0 mi Calm Calm - N/A   Clear
11:52 PM 41.0 °F - 37.9 °F 89% 30.40 in 10.0 mi Calm Calm - N/A   Clear